• In Austria
  • List of Countries
  • For 7 days
  • Water Temperature
  • Satellite Maps
  • Weather Map
  • News
  • Weather Widgets
  • user-avatar
    Login

    Hourly Weather Yurenki

    Today, 23 July, Monday

    Time Temperature Precipitation Wind Pressure Humidity
    00:00 +20°C° 0.1 mm 1 mps 751 mmHg 97%
    01:00 +20°C° 0.1 mm 1 mps 751 mmHg 97%
    02:00 +20°C° 0.1 mm 1 mps 751 mmHg 98%
    03:00 +20°C° 0.1 mm 1 mps 751 mmHg 98%
    04:00 +20°C° 0.1 mm 1 mps 751 mmHg 98%
    05:00 +20°C° 0.1 mm 1 mps 751 mmHg 98%
    06:00 +21°C° 0.1 mm 1 mps 751 mmHg 94%
    07:00 +22°C° 0.1 mm 1 mps 751 mmHg 91%
    08:00 +23°C° 0.1 mm 2 mps 751 mmHg 87%
    09:00 +24°C° 0.8 mm 2 mps 751 mmHg 84%
    10:00 +25°C° 0.8 mm 2 mps 751 mmHg 80%
    11:00 +26°C° 0.8 mm 2 mps 751 mmHg 77%
    12:00 +26°C° 0.4 mm 2 mps 751 mmHg 73%
    13:00 +27°C° 0.4 mm 2 mps 751 mmHg 70%
    14:00 +28°C° 0.4 mm 2 mps 751 mmHg 66%
    15:00 +27°C° 0.4 mm 2 mps 751 mmHg 69%
    16:00 +27°C° 0.4 mm 2 mps 751 mmHg 71%
    17:00 +26°C° 0.4 mm 2 mps 751 mmHg 74%
    18:00 +25°C° 0 mm 2 mps 751 mmHg 79%
    19:00 +23°C° 0 mm 2 mps 751 mmHg 84%
    20:00 +21°C° 0 mm 2 mps 752 mmHg 89%
    21:00 +20°C° 0 mm 2 mps 752 mmHg 92%
    22:00 +19°C° 0 mm 2 mps 752 mmHg 94%
    23:00 +18°C° 0 mm 2 mps 752 mmHg 97%

    Tomorrow, 24 July, Tuesday

    Time Temperature Precipitation Wind Pressure Humidity
    00:00 +19°C° 0 mm 1 mps 752 mmHg 97%
    01:00 +18°C° 0 mm 1 mps 752 mmHg 97%
    02:00 +18°C° 0 mm 1 mps 752 mmHg 98%
    03:00 +18°C° 0 mm 1 mps 752 mmHg 97%
    04:00 +17°C° 0 mm 2 mps 753 mmHg 97%
    05:00 +17°C° 0 mm 2 mps 753 mmHg 96%
    06:00 +19°C° 0 mm 2 mps 753 mmHg 90%
    07:00 +20°C° 0 mm 2 mps 753 mmHg 84%
    08:00 +23°C° 0 mm 2 mps 753 mmHg 77%
    09:00 +24°C° 0.1 mm 2 mps 753 mmHg 74%
    10:00 +25°C° 0.1 mm 2 mps 753 mmHg 71%
    11:00 +26°C° 0.1 mm 2 mps 753 mmHg 67%
    12:00 +26°C° 0.7 mm 2 mps 753 mmHg 69%
    13:00 +26°C° 0.7 mm 2 mps 753 mmHg 72%
    14:00 +26°C° 0.7 mm 3 mps 752 mmHg 74%
    15:00 +26°C° 0.8 mm 2 mps 752 mmHg 77%
    16:00 +26°C° 0.8 mm 2 mps 752 mmHg 81%
    17:00 +25°C° 0.8 mm 2 mps 752 mmHg 85%
    18:00 +24°C° 0.5 mm 2 mps 753 mmHg 88%
    19:00 +23°C° 0.5 mm 2 mps 753 mmHg 91%
    20:00 +21°C° 0.5 mm 2 mps 753 mmHg 94%
    21:00 +20°C° 0.1 mm 2 mps 753 mmHg 95%
    22:00 +20°C° 0.1 mm 2 mps 753 mmHg 96%
    23:00 +19°C° 0.1 mm 2 mps 753 mmHg 97%

    Day after tomorrow, 25 July, Wednesday

    Time Temperature Precipitation Wind Pressure Humidity
    00:00 +19°C° 0 mm 2 mps 754 mmHg 97%
    01:00 +19°C° 0 mm 2 mps 754 mmHg 98%
    02:00 +18°C° 0 mm 2 mps 754 mmHg 98%
    03:00 +19°C° 0 mm 1 mps 754 mmHg 98%
    04:00 +19°C° 0 mm 1 mps 754 mmHg 98%
    05:00 +19°C° 0 mm 1 mps 754 mmHg 98%
    06:00 +21°C° 0 mm 1 mps 754 mmHg 94%
    07:00 +21°C° 0 mm 2 mps 754 mmHg 91%
    08:00 +24°C° 0 mm 2 mps 754 mmHg 87%
    09:00 +25°C° 0 mm 2 mps 754 mmHg 79%
    10:00 +27°C° 0 mm 2 mps 754 mmHg 70%
    11:00 +29°C° 0 mm 2 mps 754 mmHg 62%
    12:00 +29°C° 0.1 mm 2 mps 754 mmHg 61%
    13:00 +29°C° 0.1 mm 2 mps 754 mmHg 61%
    14:00 +30°C° 0.1 mm 2 mps 754 mmHg 61%
    15:00 +29°C° 0.5 mm 2 mps 754 mmHg 66%
    16:00 +29°C° 0.5 mm 2 mps 754 mmHg 71%
    17:00 +28°C° 0.5 mm 2 mps 754 mmHg 77%
    18:00 +27°C° 0 mm 2 mps 754 mmHg 81%
    19:00 +25°C° 0 mm 2 mps 754 mmHg 86%
    20:00 +24°C° 0 mm 2 mps 755 mmHg 90%
    21:00 +23°C° 0 mm 2 mps 755 mmHg 91%
    22:00 +21°C° 0 mm 2 mps 755 mmHg 91%
    23:00 +20°C° 0 mm 2 mps 756 mmHg 92%

    26 July, Thursday

    Time Temperature Precipitation Wind Pressure Humidity
    00:00 +19°C° 0 mm 2 mps 756 mmHg 92%
    01:00 +19°C° 0 mm 2 mps 756 mmHg 93%
    02:00 +18°C° 0 mm 2 mps 756 mmHg 93%
    03:00 +18°C° 0 mm 2 mps 756 mmHg 92%
    04:00 +18°C° 0 mm 2 mps 756 mmHg 91%
    05:00 +17°C° 0 mm 2 mps 756 mmHg 89%
    06:00 +19°C° 0.1 mm 2 mps 756 mmHg 85%
    07:00 +20°C° 0.1 mm 3 mps 756 mmHg 81%
    08:00 +22°C° 0.1 mm 3 mps 756 mmHg 77%
    09:00 +25°C° 0 mm 3 mps 756 mmHg 70%
    10:00 +27°C° 0 mm 3 mps 756 mmHg 62%
    11:00 +29°C° 0 mm 3 mps 756 mmHg 55%
    12:00 +30°C° 0 mm 3 mps 756 mmHg 53%
    13:00 +30°C° 0 mm 3 mps 755 mmHg 51%
    14:00 +32°C° 0 mm 4 mps 755 mmHg 49%
    15:00 +31°C° 0.1 mm 3 mps 755 mmHg 51%
    16:00 +31°C° 0.1 mm 3 mps 755 mmHg 54%
    17:00 +31°C° 0.1 mm 3 mps 755 mmHg 56%
    18:00 +29°C° 0.2 mm 3 mps 755 mmHg 64%
    19:00 +27°C° 0.2 mm 2 mps 755 mmHg 73%
    20:00 +25°C° 0.2 mm 2 mps 756 mmHg 81%
    21:00 +24°C° 0 mm 2 mps 756 mmHg 83%
    22:00 +23°C° 0 mm 2 mps 756 mmHg 86%
    23:00 +21°C° 0 mm 2 mps 756 mmHg 88%

    27 July, Friday

    Time Temperature Precipitation Wind Pressure Humidity
    00:00 +21°C° 0.1 mm 2 mps 756 mmHg 89%
    01:00 +20°C° 0.1 mm 2 mps 756 mmHg 91%
    02:00 +20°C° 0.1 mm 2 mps 756 mmHg 92%
    03:00 +20°C° 0 mm 2 mps 756 mmHg 93%
    04:00 +20°C° 0 mm 2 mps 757 mmHg 93%
    05:00 +20°C° 0 mm 2 mps 757 mmHg 94%
    06:00 +21°C° 0 mm 2 mps 757 mmHg 90%
    07:00 +23°C° 0 mm 2 mps 757 mmHg 85%
    08:00 +25°C° 0 mm 2 mps 757 mmHg 81%
    09:00 +26°C° 0 mm 2 mps 757 mmHg 73%
    10:00 +28°C° 0 mm 3 mps 757 mmHg 66%
    11:00 +30°C° 0 mm 3 mps 757 mmHg 59%
    12:00 +31°C° 0.2 mm 3 mps 757 mmHg 56%
    13:00 +31°C° 0.2 mm 3 mps 757 mmHg 53%
    14:00 +33°C° 0.2 mm 3 mps 757 mmHg 50%
    15:00 +31°C° 0.1 mm 3 mps 757 mmHg 53%
    16:00 +31°C° 0.1 mm 3 mps 757 mmHg 56%
    17:00 +30°C° 0.1 mm 3 mps 757 mmHg 59%
    18:00 +29°C° 0.2 mm 2 mps 758 mmHg 66%
    19:00 +27°C° 0.2 mm 2 mps 758 mmHg 73%
    20:00 +25°C° 0.2 mm 2 mps 758 mmHg 80%
    21:00 +24°C° 0 mm 2 mps 758 mmHg 82%
    22:00 +24°C° 0 mm 2 mps 758 mmHg 84%
    23:00 +23°C° 0 mm 2 mps 759 mmHg 85%

    28 July, Saturday

    Time Temperature Precipitation Wind Pressure Humidity
    00:00 +21°C° 0 mm 2 mps 759 mmHg 87%
    01:00 +21°C° 0 mm 2 mps 759 mmHg 88%
    02:00 +20°C° 0 mm 2 mps 759 mmHg 89%
    03:00 +20°C° 0 mm 2 mps 759 mmHg 89%
    04:00 +20°C° 0 mm 2 mps 759 mmHg 89%
    05:00 +20°C° 0 mm 2 mps 759 mmHg 89%
    06:00 +23°C° 0 mm 2 mps 759 mmHg 83%
    07:00 +25°C° 0 mm 2 mps 759 mmHg 76%
    08:00 +27°C° 0 mm 2 mps 760 mmHg 70%
    09:00 +29°C° 0 mm 2 mps 760 mmHg 62%
    10:00 +30°C° 0 mm 3 mps 759 mmHg 54%
    11:00 +33°C° 0 mm 3 mps 759 mmHg 46%
    12:00 +33°C° 0 mm 3 mps 759 mmHg 46%
    13:00 +33°C° 0 mm 3 mps 759 mmHg 45%
    14:00 +34°C° 0 mm 3 mps 759 mmHg 44%
    15:00 +32°C° 0 mm 2 mps 759 mmHg 48%
    16:00 +32°C° 0 mm 2 mps 759 mmHg 52%
    17:00 +31°C° 0 mm 2 mps 759 mmHg 57%
    18:00 +29°C° 0 mm 2 mps 759 mmHg 63%
    19:00 +27°C° 0 mm 2 mps 759 mmHg 68%
    20:00 +25°C° 0 mm 2 mps 759 mmHg 74%
    21:00 +25°C° 0 mm 2 mps 759 mmHg 75%
    22:00 +24°C° 0 mm 1 mps 760 mmHg 76%
    23:00 +23°C° 0 mm 1 mps 760 mmHg 77%
    Show more